Погода в Большеречье

Россия / Новосибирская область     56°33′53″N   76°13′37″E
темп.,
°C
ветер,
м/с
пор.,
м/с
влажн.,
%
обл.,
%
осадки,
мм/ч
давл.,
гПа
погр.,
м
28 ноября, вс
вс2801:00−3зюз7169398 0.5 1021673
04:00−2зюз71292100 0.3 1023752
07:00−4зюз6139398 0.3 1025560
10:00−6зюз51294100 0.1 1027410
13:00−5зюз51194100 0.1 1029445
16:00−6зюз4109593 0.0 1030329
19:00−9юз389771 0.1 1032130
22:00−10юз389776 0.0 1032130
29 ноября, пн
пн2901:00−10юз399637 0.0 1032146
04:00−12юз3994100 0.0 1032131
07:00−11юз41185100 0.0 1031196
10:00−11ююз41185100 0.0 1030193
13:00−8ююз51286100 0.0 1029292
16:00−8ююз51183100 0.0 1027270
19:00−9ююз4118590 0.0 1026218
22:00−10юз4118615 0.0 1025176
30 ноября, вт
вт3001:00−10юз411845 0.0 1025184
04:00−10юз411845 0.0 1024168
07:00−11юз410855 0.0 1024149
10:00−8юз4985100 0.0 1024171
13:00−5юз41088100 0.0 1024224
16:00−4юз4988100 0.0 1024237
19:00−4ююз4888100 0.0 1024186
22:00−5ююз4786100 0.0 1025158
1 декабря, ср
ср101:00−12ююз388522 0.0 1025107
04:00−14ю389053 0.0 1024100
07:00−13ю3108925 0.0 1022141
10:00−12ююз41189100 0.0 1021181
13:00−8ююз5148890 0.0 1020290
16:00−7ююз51288100 0.0 1019275
19:00−8ююз51285100 0.0 1018221
22:00−8ююз41285100 0.0 1018221
2 декабря, чт
чт201:00−7ююз41286100 0.0 1017222
04:00−7ююз41187100 0.0 1016207
07:00−7ю41086100 0.0 1015200
10:00−7ю41084100 0.0 1014184
13:00−5ю51483100 0.0 1012318
16:00−3ю51584100 0.0 1010353
19:00−2ю61582100 0.0 1008355
22:00−1ю61584100 0.0 1006365